Regional Weather Roundup
Issued by NWS Sioux Falls, SD

Home | Current Version | Previous Version | Graphics & Text | Print | Product List | Glossary On
Versions: 1 2 3 4 5 6 7 8 9 10 11 12 13 14 15 16 17 18 19 20 21 22 23 24 25 26 27 28 29 30 31 32 33 34 35 36 37 38 39 40 41 42 43 44 45 46 47 48 49 50
000
ASUS43 KFSD 291402
RWRFSD

WEATHER ROUNDUP FOR SE SOUTH DAKOTA/SW MINNESOTA/NW IOWA
NATIONAL WEATHER SERVICE SIOUX FALLS SD
900 AM CDT FRI JUL 29 2016

NOTE: "FAIR" INDICATES FEW OR NO CLOUDS BELOW 12,000 FEET WITH NO
SIGNIFICANT WEATHER AND OR OBSTRUCTIONS TO VISIBILITY.


SDZ038>040-050-052>070-291500-
SOUTHEAST SOUTH DAKOTA

CITY           SKY/WX    TMP DP  RH WIND       PRES   REMARKS
BROOKINGS      SUNNY     67  58  72 N6        30.10S
CHAMBERLAIN    PTSUNNY   68  67  94 CALM      30.11R
HURON          SUNNY     69  58  67 E5        30.10R
MADISON        FAIR      64  63  94 NE5       30.11S
MITCHELL       SUNNY     68  59  73 E3        30.11R
SIOUX FALLS    MOSUNNY   67  58  72 NW3       30.10R
WINNER         PTSUNNY   67  62  84 N3        30.11S
YANKTON        MOSUNNY   66  57  72 NE3       30.09R
$$

MNZ071-072-080-081-089-090-097-098-291500-
SOUTHWEST MINNESOTA

CITY           SKY/WX    TMP DP  RH WIND       PRES   REMARKS
FAIRMONT       CLOUDY    64  57  77 MISG      30.06R
JACKSON        CLOUDY    64  59  82 CALM      30.09R
LUVERNE        SUNNY     64  55  72 NE6       30.11R
MARSHALL       SUNNY     64  59  83 NE6       30.10R
MONTEVIDEO     SUNNY     70  59  68 E5        30.11S
REDWOOD FALLS  SUNNY     67  57  70 NE7       30.09R
TRACY          SUNNY     64  58  82 CALM      30.11R
WINDOM         SUNNY     66  61  82 N3        30.09R
WORTHINGTON    MOSUNNY   64  60  87 N7        30.10S
$$

IAZ001>003-012>014-020>022-031-032-NEZ013-014-SDZ071-291500-
NORTHWEST IOWA

CITY           SKY/WX    TMP DP  RH WIND       PRES   REMARKS
CHEROKEE       MOSUNNY   64  62  92 CALM      30.08R
DENISON        SUNNY     68  64  88 N9        30.05R
ESTHERVILLE    CLOUDY    66  62  87 NE8       30.08R
LE MARS        MOSUNNY   66  61  82 VRB5      30.10R
SHELDON        PTSUNNY   66  63  88 N6        30.08R
SIOUX CITY     SUNNY     72  62  71 CALM      30.07S
SPENCER        CLOUDY    65  60  84 N8        30.08R
STORM LAKE     SUNNY     66  61  82 N8        30.08R
$$

ABBREVIATIONS USED IN REMARKS
   TC - TEMPERATURE IN CELSIUS
  WCI - WIND CHILL INDEX
   HX - HEAT INDEX
  VSB - VISIBILITY





USA.gov is the U.S. government's official web portal to all federal, state and local government web resources and services.